Historique des stations

Station météo de Levroux

Altitude de la station : 157 m







Données météorologiques pour le 20/06/2021
Date
Heure
Températures Humidité Point de rosée Vitesse
du vent
Direction Rafales Windchill Pression Pluviométrie
Cumul
Date
Heure
Températures Humidité Point de rosée Vitesse
du vent
Direction Rafales Windchill Pression Pluviométrie
Cumul
20/06/2021 09:3017.8 °C93 %16.7 °C2 km/hN3 km/h17.8 1011 hPa0.2 mm
20/06/2021 09:1517.9 °C93 %16.7 °C2 km/hN6 km/h17.8 1011 hPa0.2 mm
20/06/2021 09:0017.9 °C94 %17.2 °C2 km/hESE3 km/h17.8 1010 hPa0.2 mm
20/06/2021 08:4417.9 °C94 %17.2 °C2 km/hSSE8 km/h17.8 1009 hPa0.2 mm
20/06/2021 08:2917.8 °C95 %17.2 °C2 km/hE6 km/h17.8 1009 hPa0.2 mm
20/06/2021 08:1417.7 °C97 %17.2 °C2 km/hE5 km/h17.8 1009 hPa0.2 mm
20/06/2021 07:5917.0 °C96 %16.7 °C2 km/hSE3 km/h17.2 1009 hPa0.2 mm
20/06/2021 07:4416.8 °C96 %16.1 °C-SE3 km/h16.7 1010 hPa0.2 mm
20/06/2021 07:2916.7 °C95 %16.1 °C2 km/hENE8 km/h16.7 1009 hPa0.2 mm
20/06/2021 07:1416.6 °C95 %16.1 °C-SSE2 km/h16.7 1009 hPa0.2 mm
20/06/2021 06:5916.7 °C95 %16.1 °C-SSE2 km/h16.7 1010 hPa0.2 mm
20/06/2021 06:4416.8 °C95 %16.1 °C-SSE3 km/h16.7 1010 hPa0.2 mm
20/06/2021 06:2916.8 °C95 %16.1 °C-SSE2 km/h16.7 1010 hPa0.2 mm
20/06/2021 06:1416.8 °C95 %16.1 °C-SSE2 km/h16.7 1010 hPa0.2 mm
20/06/2021 05:5916.9 °C95 %16.1 °C---16.7 1010 hPa0.2 mm
20/06/2021 05:4416.9 °C95 %16.1 °C-SSE2 km/h16.7 1011 hPa0.2 mm
20/06/2021 05:2916.9 °C95 %16.1 °C-SSE2 km/h17.2 1011 hPa0.2 mm
20/06/2021 05:1417.1 °C95 %16.1 °C-SSE3 km/h17.2 1011 hPa0.2 mm
20/06/2021 05:0017.1 °C95 %16.1 °C-SSE2 km/h17.2 1011 hPa0.2 mm
20/06/2021 04:4517.3 °C95 %16.7 °C-SSE2 km/h17.2 1011 hPa0.2 mm
20/06/2021 04:3017.4 °C95 %16.7 °C2 km/hSSE2 km/h17.2 1011 hPa0.2 mm
20/06/2021 04:1517.4 °C95 %16.7 °C-SSE3 km/h17.2 1011 hPa0.2 mm
20/06/2021 04:0017.4 °C95 %16.7 °C2 km/hESE5 km/h17.2 1011 hPa0.2 mm
20/06/2021 03:4517.5 °C95 %16.7 °C-ESE3 km/h17.8 1012 hPa0.2 mm
20/06/2021 03:3017.4 °C96 %16.7 °C3 km/hSE3 km/h17.2 1012 hPa0.2 mm
20/06/2021 03:1517.5 °C95 %16.7 °C2 km/hSE3 km/h17.8 1012 hPa-
20/06/2021 03:0017.6 °C95 %16.7 °C2 km/hO5 km/h17.8 1012 hPa-
20/06/2021 02:4517.6 °C95 %16.7 °C2 km/hSSE5 km/h17.8 1012 hPa-
20/06/2021 02:3017.5 °C95 %16.7 °C2 km/hE3 km/h17.8 1012 hPa-
20/06/2021 02:1517.7 °C94 %16.7 °C-ESE3 km/h17.8 1012 hPa-
20/06/2021 02:0017.8 °C95 %17.2 °C3 km/hESE3 km/h17.8 1012 hPa-
20/06/2021 01:4517.8 °C94 %16.7 °C-ESE3 km/h17.8 1012 hPa-
20/06/2021 01:3017.9 °C95 %17.2 °C-ESE3 km/h17.8 1012 hPa-
20/06/2021 01:1517.9 °C95 %17.2 °C2 km/hESE3 km/h17.8 1012 hPa-
20/06/2021 01:0018.0 °C94 %17.2 °C-ESE3 km/h17.8 1012 hPa-
20/06/2021 00:4517.9 °C95 %17.2 °C2 km/hE3 km/h17.8 1012 hPa-
20/06/2021 00:3017.9 °C94 %17.2 °C-ENE3 km/h17.8 1012 hPa-
20/06/2021 00:1517.9 °C94 %17.2 °C-ENE3 km/h17.8 1012 hPa-
20/06/2021 00:0018.1 °C93 %17.2 °C-ENE2 km/h18.3 1012 hPa-


Minima :

Température : 16.6 °C
Humidité : 93 %
Point de rosée : 16.1 °C
Vent moyen : 2 km/h
Windchill : 16.7
Pression atm. : 1009 hPa
Maxima :

Température : 18.1 °C
Humidité : 97 %
Point de rosée : 17.2 °C
Vent moyen : 3 km/h
Windchill : 18.3
Pression atm. : 1012 hPa
Rafales max : 8 km/h
Cumul de pluie sur 24H : 0.2 mm

Levroux est une commune du département Indre (36).
La station météorologique du réseau de l'association la plus proche de Levroux est celle de Ménétréols-sous-Vatan



Icône Facebook Association Météo Centre Icône Twitter Association Météo Centre Icône Chaîne Youtube Association Météo Centre Icône contact Association Météo Centre Icône Insta Association Météo Centre